Concord, CA

6:26 AM PST on December 06, 2016 (GMT -0800)
Buchanan

Weather History for KCCR - March, 2014

Change the Weather History Date:

Tuesday, March 11, 2014

  Actual Average Record
Temperature  
Mean Temperature 57 °F 55 °F  
Max Temperature 71 °F 66 °F 81 °F (2005)
Min Temperature 42 °F 45 °F 35 °F (2006)
Degree Days  
Heating Degree Days 8    
Month to date heating degree days 80  
Since 1 July heating degree days 1826  
Cooling Degree Days 0    
Month to date cooling degree days 0  
Year to date cooling degree days 0  
Growing Degree Days 7 (Base 50)    
Moisture  
Dew Point 34 °F    
Average Humidity 52    
Maximum Humidity 80    
Minimum Humidity 23    
Precipitation  
Precipitation 0.00 in - 0.31 in (2016)
Month to date precipitation 0.49  
Year to date precipitation 5.08  
Since 1 July precipitation 7.56  
Sea Level Pressure  
Sea Level Pressure 30.07 in    
Wind  
Wind Speed 8 mph (NE)    
Max Wind Speed 22 mph    
Max Gust Speed 30 mph    
Visibility 10 miles    
Events      
T = Trace of Precipitation, MM = Missing Value Source: NWS Daily Summary

Daily Weather History Graph

Daily Weather History Graph

Search for Another Location

Airport or City:

Trip Planner

Search our weather history database for the weather conditions in past years. The results will help you decide how hot, cold, wet, or windy it might be!

Date:

Astronomy

Mar. 11, 2014 Rise Set
Actual Time 7:25 AM PDT 7:11 PM PDT
Civil Twilight 6:58 AM PDT 7:37 PM PDT
Nautical Twilight 6:28 AM PDT 8:08 PM PDT
Astronomical Twilight 5:57 AM PDT 8:39 PM PDT
Moon 2:56 PM PDT (3/11) 4:18 AM PDT (3/11)
Length of Visible Light 12h 38m
Length of Day
11h 46m
Waxing Gibbous, 79% of the Moon is Illuminated
Mar 11
Waxing Gibbous
Mar 16
Full
Mar 23
Last Quarter
Mar 30
New
Apr 7
First Quarter

Hourly Weather History & Observations

Time (PDT) Temp. Windchill Dew Point Humidity Pressure Visibility Wind Dir Wind Speed Gust Speed Precip Events Conditions
12:53 AM 51.1 °F - 44.1 °F 77% 30.17 in 10.0 mi Calm Calm - N/A   Clear
1:53 AM 48.9 °F - 43.0 °F 80% 30.16 in 10.0 mi Calm Calm - N/A   Clear
2:53 AM 46.9 °F - 39.9 °F 77% 30.16 in 10.0 mi Calm Calm - N/A   Clear
3:53 AM 48.9 °F - 37.9 °F 66% 30.14 in 10.0 mi Calm Calm - N/A   Clear
4:53 AM 46.0 °F - 37.0 °F 71% 30.12 in 10.0 mi Calm Calm - N/A   Clear
5:53 AM 44.1 °F 42.5 °F 37.9 °F 79% 30.11 in 10.0 mi South 3.5 mph - N/A   Clear
6:53 AM 44.1 °F 42.5 °F 36.0 °F 73% 30.10 in 10.0 mi South 3.5 mph - N/A   Clear
7:53 AM 44.1 °F - 36.0 °F 73% 30.10 in 10.0 mi Calm Calm - N/A   Clear
8:53 AM 53.1 °F - 32.0 °F 45% 30.12 in 10.0 mi East 9.2 mph - N/A   Clear
9:53 AM 57.0 °F - 30.0 °F 36% 30.11 in 10.0 mi ENE 9.2 mph - N/A   Clear
10:53 AM 61.0 °F - 28.0 °F 29% 30.11 in 10.0 mi NE 8.1 mph - N/A   Clear
11:53 AM 63.0 °F - 27.0 °F 26% 30.10 in 10.0 mi NNE 8.1 mph - N/A   Clear
12:53 PM 66.0 °F - 30.9 °F 27% 30.07 in 10.0 mi NNE 9.2 mph 18.4 mph N/A   Clear
1:53 PM 68.0 °F - 30.0 °F 24% 30.04 in 10.0 mi NE 15.0 mph 24.2 mph N/A   Clear
2:53 PM 69.1 °F - 30.9 °F 24% 30.02 in 10.0 mi NNE 11.5 mph 23.0 mph N/A   Clear
3:53 PM 69.1 °F - 30.0 °F 23% 30.00 in 10.0 mi NNE 12.7 mph 25.3 mph N/A   Clear
4:53 PM 70.0 °F - 30.0 °F 23% 29.99 in 10.0 mi NNE 13.8 mph 26.5 mph N/A   Clear
5:53 PM 69.1 °F - 32.0 °F 25% 29.99 in 10.0 mi NNE 13.8 mph 24.2 mph N/A   Clear
6:53 PM 66.9 °F - 32.0 °F 27% 29.99 in 10.0 mi NNE 15.0 mph 29.9 mph N/A   Clear
7:53 PM 63.0 °F - 34.0 °F 34% 30.00 in 10.0 mi North 13.8 mph 20.7 mph N/A   Clear
8:53 PM 63.0 °F - 34.0 °F 34% 30.01 in 10.0 mi NNE 16.1 mph 23.0 mph N/A   Clear
9:53 PM 61.0 °F - 33.1 °F 35% 30.02 in 10.0 mi NNE 9.2 mph - N/A   Clear
10:53 PM 57.0 °F - 33.1 °F 40% 30.04 in 10.0 mi NNE 6.9 mph - N/A   Clear
11:53 PM 57.0 °F - 28.0 °F 33% 30.03 in 10.0 mi NNE 10.4 mph - N/A   Clear